QPF
0.00 0.00 0.00 0.00 0.00 0.00 0.00 0.00 0.01 0.01 0.01 0.00 0.00 0.01 0.01 0.01 0.01 0.02 0.01 0.00 0.00 0.00 0.00 0.00 0.00 0.00 0.00 0.00 0.00 0.00 0.00 0.00 0.00 0.00 0.00 0.00 0.00 0.00 0.00 0.00 0.00 0.00 0.00 0.00 0.00 0.00 0.00 0.00 0.00
0.00 0.00 0.00 0.00 0.00 0.00 0.00 0.00 0.01 0.00 0.00 0.00 0.01 0.00 0.00 0.00 0.00 0.00 0.00 0.00 0.00 0.00 0.00 0.00 0.00 0.00 0.00 0.00 0.00 0.00 0.00 0.00 0.00 0.00 0.00 0.00 0.00 0.00 0.00 0.00 0.00 0.00 0.00 0.00 0.00 0.00 0.00 0.00 0.00
0.00 0.00 0.00 0.00 0.00 0.00 0.00 0.01 0.02 0.01 0.00 0.01 0.01 0.00 0.00 0.00 0.00 0.00 0.00 0.00 0.00 0.00 0.00 0.00 0.00 0.00 0.00 0.00 0.00 0.00 0.00 0.00 0.00 0.00 0.00 0.00 0.00 0.00 0.00 0.00 0.00 0.00 0.00 0.00 0.00 0.00 0.00 0.00 0.00
0.00 0.00 0.00 0.00 0.00 0.00 0.00 0.01 0.02 0.01 0.01 0.01 0.01 0.00 0.00 0.00 0.00 0.00 0.00 0.00 0.00 0.00 0.00 0.00 0.00 0.00 0.00 0.00 0.00 0.00 0.00 0.00 0.00 0.00 0.00 0.00 0.00 0.00 0.00 0.00 0.00 0.00 0.00 0.00 0.00 0.00 0.00 0.00 0.00
0.00 0.00 0.00 0.00 0.00 0.00 0.00 0.01 0.01 0.01 0.01 0.01 0.01 0.00 0.00 0.00 0.00 0.00 0.00 0.00 0.00 0.00 0.00 0.00 0.00 0.00 0.00 0.00 0.00 0.00 0.00 0.00 0.00 0.00 0.00 0.00 0.00 0.00 0.00 0.00 0.00 0.00 0.00 0.00 0.00 0.00 0.00 0.00 0.00
0.00 0.00 0.00 0.00 0.00 0.00 0.00 0.01 0.01 0.01 0.02 0.03 0.02 0.01 0.01 0.00 0.00 0.00 0.00 0.00 0.00 0.01 0.00 0.00 0.00 0.00 0.00 0.00 0.00 0.00 0.00 0.00 0.00 0.00 0.00 0.00 0.00 0.00 0.00 0.00 0.00 0.00 0.00 0.00 0.00 0.00 0.00 0.00 0.00
0.00 0.00 0.00 0.00 0.00 0.00 0.01 0.01 0.01 0.01 0.02 0.03 0.03 0.02 0.01 0.00 0.00 0.00 0.00 0.00 0.00 0.00 0.00 0.00 0.00 0.00 0.00 0.00 0.00 0.00 0.00 0.00 0.00 0.00 0.00 0.00 0.00 0.00 0.00 0.00 0.00 0.00 0.00 0.00 0.00 0.00 0.00 0.00 0.00
0.00 0.00 0.00 0.00 0.00 0.00 0.01 0.02 0.01 0.01 0.01 0.01 0.01 0.01 0.01 0.01 0.00 0.00 0.00 0.00 0.00 0.00 0.00 0.00 0.00 0.00 0.00 0.00 0.00 0.00 0.00 0.00 0.00 0.00 0.00 0.00 0.00 0.00 0.00 0.00 0.00 0.00 0.00 0.00 0.00 0.00 0.00 0.00 0.00
0.00 0.00 0.00 0.00 0.00 0.00 0.01 0.02 0.02 0.02 0.01 0.01 0.01 0.01 0.01 0.00 0.01 0.00 0.00 0.00 0.00 0.00 0.00 0.00 0.00 0.00 0.00 0.00 0.00 0.00 0.00 0.00 0.00 0.00 0.00 0.00 0.00 0.00 0.00 0.00 0.00 0.00 0.00 0.00 0.00 0.00 0.00 0.00 0.00
0.00 0.00 0.00 0.00 0.00 0.01 0.01 0.02 0.03 0.03 0.02 0.01 0.01 0.01 0.01 0.01 0.01 0.01 0.00 0.00 0.00 0.00 0.00 0.00 0.00 0.00 0.00 0.00 0.00 0.00 0.00 0.00 0.00 0.00 0.00 0.00 0.00 0.00 0.01 0.01 0.01 0.00 0.00 0.00 0.00 0.00 0.00 0.00 0.00
0.00 0.00 0.00 0.00 0.00 0.00 0.01 0.01 0.03 0.04 0.03 0.02 0.03 0.03 0.01 0.00 0.01 0.01 0.01 0.01 0.01 0.00 0.00 0.00 0.00 0.00 0.00 0.00 0.00 0.00 0.00 0.00 0.00 0.00 0.00 0.00 0.01 0.00 0.00 0.00 0.01 0.01 0.00 0.00 0.00 0.00 0.00 0.00 0.00
0.00 0.00 0.00 0.00 0.00 0.00 0.00 0.00 0.01 0.02 0.03 0.03 0.04 0.04 0.03 0.01 0.01 0.02 0.02 0.02 0.02 0.01 0.00 0.00 0.00 0.00 0.00 0.00 0.00 0.00 0.00 0.00 0.00 0.01 0.00 0.00 0.01 0.01 0.01 0.01 0.01 0.01 0.01 0.00 0.00 0.00 0.00 0.00 0.00
0.00 0.00 0.00 0.00 0.00 0.00 0.00 0.00 0.00 0.00 0.01 0.01 0.02 0.04 0.04 0.02 0.03 0.04 0.04 0.04 0.03 0.02 0.01 0.00 0.00 0.00 0.00 0.00 0.00 0.00 0.00 0.00 0.00 0.00 0.00 0.00 0.00 0.00 0.01 0.01 0.01 0.01 0.01 0.02 0.01 0.01 0.01 0.00 0.00
0.00 0.00 0.00 0.00 0.00 0.00 0.00 0.00 0.00 0.00 0.00 0.00 0.01 0.02 0.04 0.05 0.03 0.03 0.05 0.06 0.07 0.03 0.01 0.00 0.00 0.00 0.00 0.00 0.00 0.00 0.00 0.00 0.00 0.00 0.00 0.00 0.00 0.00 0.00 0.00 0.00 0.00 0.00 0.01 0.01 0.00 0.00 0.00 0.00
0.00 0.00 0.00 0.00 0.00 0.00 0.00 0.00 0.00 0.00 0.00 0.00 0.00 0.02 0.04 0.07 0.04 0.03 0.05 0.08 0.12 0.07 0.03 0.02 0.01 0.01 0.01 0.00 0.00 0.00 0.00 0.00 0.00 0.00 0.00 0.00 0.00 0.00 0.00 0.00 0.00 0.00 0.00 0.00 0.00 0.00 0.00 0.00 0.00
0.00 0.00 0.00 0.00 0.00 0.00 0.00 0.00 0.00 0.00 0.00 0.00 0.00 0.01 0.02 0.05 0.05 0.05 0.10 0.11 0.13 0.08 0.05 0.04 0.02 0.03 0.02 0.01 0.01 0.00 0.00 0.00 0.00 0.00 0.00 0.00 0.00 0.00 0.00 0.00 0.00 0.00 0.00 0.00 0.00 0.00 0.00 0.00 0.00
0.00 0.00 0.00 0.00 0.00 0.00 0.00 0.00 0.00 0.00 0.00 0.00 0.00 0.00 0.01 0.01 0.02 0.01 0.05 0.11 0.09 0.06 0.05 0.05 0.04 0.04 0.04 0.04 0.03 0.01 0.01 0.00 0.00 0.01 0.01 0.00 0.00 0.00 0.00 0.00 0.01 0.01 0.01 0.00 0.00 0.00 0.00 0.00 0.00
0.00 0.00 0.00 0.00 0.00 0.00 0.00 0.00 0.00 0.00 0.00 0.00 0.00 0.00 0.00 0.00 0.01 0.01 0.03 0.08 0.10 0.09 0.07 0.06 0.08 0.05 0.04 0.03 0.02 0.02 0.03 0.03 0.03 0.02 0.02 0.01 0.01 0.01 0.00 0.01 0.01 0.01 0.01 0.00 0.00 0.00 0.00 0.00 0.00
0.00 0.00 0.00 0.00 0.00 0.00 0.00 0.00 0.00 0.00 0.00 0.00 0.00 0.00 0.00 0.00 0.00 0.01 0.02 0.04 0.08 0.11 0.11 0.11 0.09 0.05 0.03 0.04 0.03 0.04 0.05 0.06 0.06 0.05 0.04 0.04 0.03 0.03 0.02 0.02 0.01 0.01 0.01 0.00 0.00 0.00 0.00 0.00 0.00
0.00 0.00 0.00 0.00 0.00 0.00 0.00 0.00 0.00 0.00 0.00 0.00 0.00 0.00 0.00 0.00 0.00 0.00 0.01 0.02 0.06 0.08 0.07 0.06 0.05 0.06 0.06 0.06 0.08 0.09 0.10 0.11 0.10 0.09 0.08 0.08 0.06 0.05 0.04 0.03 0.02 0.01 0.01 0.00 0.00 0.00 0.00 0.00 0.00
0.00 0.00 0.00 0.00 0.00 0.00 0.00 0.00 0.00 0.00 0.00 0.00 0.00 0.00 0.00 0.00 0.00 0.00 0.00 0.01 0.04 0.05 0.05 0.06 0.08 0.10 0.12 0.14 0.16 0.15 0.15 0.14 0.11 0.10 0.11 0.10 0.09 0.07 0.05 0.04 0.03 0.02 0.01 0.00 0.00 0.00 0.00 0.00 0.00
0.00 0.00 0.00 0.00 0.00 0.00 0.00 0.00 0.00 0.00 0.00 0.00 0.00 0.00 0.00 0.00 0.00 0.00 0.00 0.00 0.02 0.04 0.08 0.09 0.13 0.16 0.20 0.26 0.27 0.23 0.19 0.15 0.16 0.16 0.15 0.12 0.11 0.08 0.06 0.04 0.03 0.02 0.01 0.01 0.00 0.00 0.00 0.00 0.00
0.00 0.00 0.00 0.00 0.00 0.00 0.00 0.00 0.00 0.00 0.00 0.00 0.00 0.00 0.00 0.00 0.00 0.00 0.00 0.01 0.03 0.07 0.11 0.15 0.18 0.21 0.28 0.32 0.34 0.31 0.24 0.20 0.19 0.16 0.14 0.13 0.11 0.09 0.06 0.04 0.03 0.02 0.01 0.00 0.00 0.00 0.00 0.00 0.00
0.00 0.00 0.00 0.00 0.00 0.00 0.00 0.00 0.00 0.00 0.00 0.00 0.00 0.00 0.00 0.00 0.00 0.00 0.01 0.03 0.07 0.10 0.16 0.20 0.24 0.26 0.30 0.34 0.32 0.24 0.21 0.21 0.20 0.17 0.15 0.12 0.09 0.07 0.05 0.04 0.03 0.02 0.01 0.00 0.00 0.00 0.00 0.00 0.00
0.00 0.00 0.00 0.00 0.00 0.00 0.00 0.00 0.00 0.00 0.00 0.00 0.00 0.00 0.00 0.00 0.01 0.01 0.02 0.04 0.08 0.13 0.19 0.25 0.26 0.24 0.23 0.20 0.17 0.16 0.17 0.17 0.15 0.12 0.09 0.07 0.06 0.04 0.03 0.02 0.01 0.01 0.00 0.00 0.00 0.00 0.00 0.00 0.00
0.00 0.00 0.00 0.00 0.00 0.00 0.00 0.00 0.00 0.00 0.00 0.00 0.00 0.00 0.00 0.01 0.01 0.02 0.04 0.07 0.13 0.18 0.21 0.22 0.18 0.13 0.09 0.08 0.09 0.11 0.11 0.11 0.09 0.07 0.05 0.03 0.02 0.01 0.01 0.01 0.01 0.00 0.00 0.00 0.00 0.00 0.00 0.00 0.00
0.00 0.00 0.00 0.00 0.00 0.00 0.00 0.00 0.00 0.00 0.00 0.00 0.00 0.00 0.01 0.01 0.02 0.04 0.07 0.11 0.15 0.16 0.15 0.11 0.08 0.06 0.04 0.04 0.04 0.04 0.05 0.05 0.05 0.04 0.03 0.02 0.01 0.01 0.01 0.00 0.00 0.00 0.00 0.00 0.00 0.00 0.00 0.00 0.00
0.00 0.00 0.00 0.00 0.00 0.00 0.00 0.00 0.00 0.00 0.00 0.00 0.01 0.01 0.02 0.03 0.05 0.07 0.11 0.12 0.10 0.09 0.08 0.06 0.04 0.04 0.03 0.02 0.02 0.02 0.03 0.03 0.03 0.03 0.03 0.02 0.01 0.01 0.00 0.00 0.00 0.00 0.00 0.00 0.00 0.00 0.00 0.00 0.00
0.00 0.00 0.00 0.00 0.00 0.00 0.00 0.00 0.00 0.00 0.00 0.00 0.01 0.02 0.03 0.06 0.07 0.09 0.10 0.09 0.07 0.07 0.06 0.04 0.02 0.02 0.02 0.01 0.02 0.02 0.03 0.03 0.03 0.02 0.02 0.01 0.01 0.00 0.00 0.00 0.00 0.00 0.00 0.00 0.00 0.00 0.00 0.00 0.00
0.00 0.00 0.00 0.00 0.00 0.00 0.00 0.01 0.00 0.00 0.00 0.00 0.01 0.02 0.05 0.09 0.14 0.16 0.14 0.11 0.09 0.06 0.04 0.03 0.02 0.01 0.01 0.01 0.02 0.02 0.02 0.03 0.02 0.02 0.01 0.01 0.01 0.00 0.00 0.00 0.00 0.00 0.00 0.00 0.00 0.00 0.00 0.00 0.00
MSLP
1011.23 1012.28 1013.55 1014.80 1015.79 1016.34 1016.36 1015.89 1015.03 1014.01 1013.05 1012.33 1011.98 1012.01 1012.36 1012.89 1013.44 1013.85 1014.05 1014.02 1013.80 1013.50 1013.23 1013.08 1013.12 1013.35 1013.71 1014.13 1014.54 1014.88 1015.13 1015.29 1015.42 1015.55 1015.71 1015.94 1016.22 1016.51 1016.78 1016.98 1017.09 1017.13 1017.11 1017.07 1017.04 1017.05 1017.12 1017.22 1017.34
1011.86 1013.06 1014.36 1015.51 1016.29 1016.54 1016.23 1015.41 1014.27 1013.03 1011.94 1011.17 1010.84 1010.93 1011.36 1011.98 1012.61 1013.11 1013.39 1013.44 1013.33 1013.14 1013.00 1012.98 1013.13 1013.44 1013.87 1014.33 1014.76 1015.11 1015.36 1015.53 1015.67 1015.81 1015.99 1016.21 1016.47 1016.73 1016.96 1017.12 1017.20 1017.20 1017.17 1017.12 1017.10 1017.11 1017.18 1017.27 1017.38
1012.60 1013.89 1015.15 1016.16 1016.69 1016.64 1016.02 1014.92 1013.56 1012.19 1011.04 1010.28 1010.00 1010.17 1010.68 1011.36 1012.05 1012.59 1012.92 1013.04 1013.01 1012.93 1012.89 1012.98 1013.22 1013.61 1014.07 1014.55 1014.99 1015.33 1015.58 1015.75 1015.88 1016.02 1016.19 1016.40 1016.63 1016.85 1017.03 1017.15 1017.20 1017.19 1017.15 1017.12 1017.12 1017.16 1017.24 1017.33 1017.42
1013.36 1014.67 1015.84 1016.66 1016.94 1016.62 1015.75 1014.46 1012.99 1011.57 1010.45 1009.77 1009.58 1009.83 1010.39 1011.11 1011.82 1012.37 1012.72 1012.88 1012.92 1012.91 1012.96 1013.13 1013.44 1013.86 1014.34 1014.81 1015.22 1015.53 1015.76 1015.91 1016.03 1016.16 1016.32 1016.51 1016.70 1016.89 1017.03 1017.11 1017.14 1017.14 1017.12 1017.12 1017.16 1017.23 1017.33 1017.42 1017.50
1014.05 1015.30 1016.32 1016.92 1016.96 1016.43 1015.39 1014.02 1012.54 1011.20 1010.19 1009.63 1009.55 1009.89 1010.49 1011.21 1011.90 1012.43 1012.78 1012.96 1013.03 1013.09 1013.21 1013.44 1013.78 1014.20 1014.66 1015.08 1015.43 1015.70 1015.88 1016.00 1016.11 1016.23 1016.38 1016.55 1016.73 1016.88 1017.00 1017.06 1017.09 1017.10 1017.11 1017.15 1017.23 1017.34 1017.46 1017.56 1017.63
1014.56 1015.68 1016.50 1016.87 1016.70 1016.01 1014.91 1013.55 1012.18 1010.99 1010.17 1009.78 1009.83 1010.22 1010.84 1011.53 1012.16 1012.65 1012.97 1013.16 1013.28 1013.39 1013.57 1013.84 1014.19 1014.59 1014.99 1015.35 1015.62 1015.81 1015.94 1016.03 1016.13 1016.25 1016.40 1016.57 1016.74 1016.88 1016.98 1017.03 1017.06 1017.09 1017.14 1017.22 1017.34 1017.48 1017.62 1017.72 1017.78
1014.83 1015.75 1016.33 1016.46 1016.12 1015.34 1014.24 1012.99 1011.80 1010.85 1010.24 1010.04 1010.20 1010.64 1011.24 1011.87 1012.43 1012.85 1013.14 1013.34 1013.50 1013.68 1013.92 1014.23 1014.59 1014.96 1015.30 1015.56 1015.75 1015.87 1015.94 1016.01 1016.10 1016.23 1016.40 1016.59 1016.76 1016.90 1016.99 1017.05 1017.08 1017.11 1017.18 1017.29 1017.44 1017.61 1017.76 1017.87 1017.91
1014.85 1015.51 1015.83 1015.73 1015.23 1014.40 1013.37 1012.29 1011.33 1010.63 1010.26 1010.22 1010.48 1010.94 1011.49 1012.03 1012.49 1012.85 1013.12 1013.35 1013.57 1013.83 1014.14 1014.51 1014.88 1015.23 1015.50 1015.69 1015.80 1015.85 1015.88 1015.94 1016.04 1016.19 1016.39 1016.60 1016.79 1016.94 1017.03 1017.08 1017.11 1017.14 1017.22 1017.34 1017.50 1017.68 1017.83 1017.94 1017.97
1014.64 1015.03 1015.07 1014.76 1014.13 1013.28 1012.34 1011.45 1010.73 1010.27 1010.11 1010.22 1010.53 1010.97 1011.45 1011.88 1012.25 1012.55 1012.81 1013.07 1013.37 1013.72 1014.13 1014.57 1014.98 1015.32 1015.56 1015.70 1015.75 1015.75 1015.77 1015.82 1015.94 1016.14 1016.37 1016.61 1016.83 1016.98 1017.07 1017.10 1017.11 1017.14 1017.20 1017.31 1017.47 1017.65 1017.80 1017.91 1017.94
1014.29 1014.40 1014.18 1013.66 1012.93 1012.08 1011.24 1010.53 1010.03 1009.78 1009.79 1009.99 1010.32 1010.71 1011.09 1011.41 1011.68 1011.92 1012.18 1012.49 1012.87 1013.34 1013.85 1014.36 1014.83 1015.19 1015.42 1015.54 1015.57 1015.56 1015.58 1015.65 1015.81 1016.04 1016.31 1016.58 1016.82 1016.98 1017.06 1017.08 1017.07 1017.07 1017.11 1017.21 1017.35 1017.52 1017.67 1017.78 1017.83
1013.88 1013.74 1013.29 1012.60 1011.78 1010.94 1010.20 1009.64 1009.31 1009.23 1009.35 1009.60 1009.91 1010.22 1010.48 1010.69 1010.87 1011.06 1011.31 1011.67 1012.13 1012.69 1013.30 1013.90 1014.42 1014.82 1015.08 1015.21 1015.26 1015.27 1015.31 1015.42 1015.62 1015.89 1016.19 1016.49 1016.74 1016.90 1016.98 1016.99 1016.96 1016.94 1016.96 1017.04 1017.17 1017.32 1017.48 1017.59 1017.66
1013.52 1013.18 1012.54 1011.72 1010.84 1010.02 1009.36 1008.92 1008.72 1008.74 1008.91 1009.16 1009.42 1009.63 1009.78 1009.88 1009.97 1010.11 1010.35 1010.73 1011.25 1011.88 1012.56 1013.22 1013.80 1014.25 1014.55 1014.73 1014.82 1014.88 1014.97 1015.13 1015.37 1015.67 1016.00 1016.32 1016.58 1016.75 1016.83 1016.83 1016.81 1016.79 1016.80 1016.86 1016.98 1017.13 1017.28 1017.41 1017.49
1013.27 1012.78 1012.02 1011.13 1010.22 1009.43 1008.83 1008.47 1008.35 1008.42 1008.60 1008.81 1008.99 1009.10 1009.13 1009.13 1009.14 1009.22 1009.43 1009.81 1010.34 1010.99 1011.71 1012.41 1013.03 1013.52 1013.88 1014.12 1014.28 1014.42 1014.58 1014.79 1015.07 1015.41 1015.76 1016.09 1016.35 1016.53 1016.63 1016.66 1016.65 1016.65 1016.67 1016.74 1016.86 1017.00 1017.16 1017.29 1017.39
1013.17 1012.59 1011.78 1010.86 1009.97 1009.22 1008.68 1008.37 1008.27 1008.34 1008.47 1008.61 1008.70 1008.70 1008.64 1008.54 1008.48 1008.51 1008.68 1009.02 1009.52 1010.14 1010.84 1011.53 1012.16 1012.70 1013.12 1013.44 1013.70 1013.93 1014.17 1014.45 1014.78 1015.14 1015.50 1015.83 1016.11 1016.31 1016.44 1016.51 1016.55 1016.59 1016.65 1016.75 1016.87 1017.02 1017.17 1017.31 1017.41
1013.18 1012.59 1011.78 1010.90 1010.06 1009.37 1008.87 1008.58 1008.47 1008.48 1008.53 1008.57 1008.55 1008.45 1008.30 1008.14 1008.01 1007.99 1008.11 1008.39 1008.82 1009.38 1010.01 1010.67 1011.30 1011.86 1012.35 1012.76 1013.12 1013.46 1013.80 1014.15 1014.53 1014.91 1015.28 1015.62 1015.91 1016.14 1016.32 1016.45 1016.56 1016.67 1016.78 1016.91 1017.06 1017.22 1017.36 1017.49 1017.59
1013.26 1012.69 1011.95 1011.16 1010.41 1009.78 1009.32 1009.02 1008.85 1008.76 1008.69 1008.60 1008.45 1008.26 1008.04 1007.82 1007.66 1007.60 1007.67 1007.88 1008.24 1008.71 1009.27 1009.86 1010.47 1011.06 1011.61 1012.13 1012.62 1013.08 1013.52 1013.96 1014.38 1014.78 1015.16 1015.50 1015.81 1016.07 1016.31 1016.51 1016.70 1016.89 1017.07 1017.25 1017.42 1017.58 1017.71 1017.82 1017.90
1013.32 1012.83 1012.20 1011.54 1010.90 1010.35 1009.91 1009.57 1009.29 1009.06 1008.82 1008.57 1008.29 1008.00 1007.71 1007.47 1007.30 1007.23 1007.28 1007.45 1007.73 1008.12 1008.60 1009.15 1009.74 1010.35 1010.98 1011.61 1012.22 1012.81 1013.37 1013.89 1014.36 1014.79 1015.18 1015.52 1015.84 1016.14 1016.43 1016.71 1016.98 1017.24 1017.49 1017.72 1017.91 1018.06 1018.18 1018.27 1018.32
1013.31 1012.93 1012.45 1011.95 1011.45 1010.98 1010.54 1010.12 1009.70 1009.27 1008.82 1008.37 1007.94 1007.54 1007.21 1006.96 1006.82 1006.78 1006.84 1007.01 1007.26 1007.60 1008.03 1008.54 1009.13 1009.78 1010.49 1011.22 1011.97 1012.69 1013.36 1013.96 1014.49 1014.94 1015.33 1015.68 1016.01 1016.34 1016.67 1017.01 1017.35 1017.69 1017.99 1018.25 1018.45 1018.60 1018.70 1018.76 1018.79
1013.17 1012.94 1012.64 1012.32 1011.97 1011.59 1011.14 1010.62 1010.01 1009.35 1008.65 1007.97 1007.36 1006.85 1006.48 1006.25 1006.16 1006.20 1006.33 1006.55 1006.82 1007.16 1007.58 1008.08 1008.68 1009.38 1010.16 1011.00 1011.87 1012.71 1013.48 1014.16 1014.74 1015.21 1015.61 1015.96 1016.29 1016.63 1017.00 1017.38 1017.78 1018.15 1018.49 1018.77 1018.98 1019.11 1019.19 1019.24 1019.26
1012.89 1012.83 1012.75 1012.63 1012.45 1012.15 1011.69 1011.05 1010.24 1009.32 1008.35 1007.42 1006.61 1005.98 1005.57 1005.38 1005.38 1005.54 1005.79 1006.10 1006.46 1006.84 1007.29 1007.81 1008.44 1009.18 1010.03 1010.95 1011.91 1012.84 1013.70 1014.44 1015.06 1015.55 1015.95 1016.30 1016.63 1016.97 1017.35 1017.76 1018.18 1018.58 1018.93 1019.22 1019.42 1019.54 1019.61 1019.65 1019.67
1012.47 1012.61 1012.77 1012.89 1012.89 1012.68 1012.21 1011.46 1010.46 1009.27 1008.02 1006.84 1005.84 1005.09 1004.65 1004.51 1004.62 1004.92 1005.33 1005.79 1006.26 1006.73 1007.24 1007.80 1008.45 1009.23 1010.11 1011.08 1012.09 1013.07 1013.98 1014.76 1015.39 1015.90 1016.30 1016.63 1016.96 1017.30 1017.68 1018.10 1018.52 1018.92 1019.27 1019.55 1019.73 1019.85 1019.91 1019.95 1019.99
1011.95 1012.32 1012.73 1013.10 1013.30 1013.21 1012.76 1011.92 1010.75 1009.33 1007.84 1006.43 1005.25 1004.40 1003.94 1003.85 1004.08 1004.53 1005.11 1005.73 1006.34 1006.92 1007.49 1008.09 1008.76 1009.53 1010.41 1011.37 1012.37 1013.36 1014.27 1015.05 1015.69 1016.19 1016.59 1016.92 1017.24 1017.57 1017.95 1018.35 1018.76 1019.15 1019.49 1019.75 1019.92 1020.02 1020.08 1020.12 1020.19
1011.37 1011.97 1012.65 1013.28 1013.69 1013.74 1013.35 1012.47 1011.19 1009.61 1007.93 1006.35 1005.03 1004.11 1003.63 1003.60 1003.94 1004.54 1005.27 1006.05 1006.78 1007.46 1008.08 1008.69 1009.35 1010.08 1010.90 1011.81 1012.75 1013.68 1014.55 1015.30 1015.92 1016.40 1016.79 1017.12 1017.43 1017.77 1018.13 1018.52 1018.92 1019.29 1019.60 1019.84 1020.00 1020.09 1020.15 1020.20 1020.28
1010.77 1011.59 1012.53 1013.41 1014.04 1014.25 1013.95 1013.11 1011.79 1010.14 1008.36 1006.68 1005.29 1004.33 1003.86 1003.88 1004.31 1005.02 1005.88 1006.77 1007.60 1008.34 1008.99 1009.59 1010.20 1010.85 1011.57 1012.37 1013.20 1014.04 1014.82 1015.51 1016.08 1016.54 1016.92 1017.24 1017.56 1017.89 1018.25 1018.63 1019.01 1019.36 1019.65 1019.87 1020.01 1020.10 1020.15 1020.20 1020.29
1010.18 1011.20 1012.36 1013.45 1014.29 1014.68 1014.51 1013.76 1012.50 1010.87 1009.10 1007.42 1006.03 1005.08 1004.64 1004.70 1005.19 1005.98 1006.91 1007.87 1008.75 1009.51 1010.16 1010.71 1011.24 1011.78 1012.37 1013.03 1013.73 1014.43 1015.10 1015.70 1016.22 1016.64 1017.00 1017.32 1017.63 1017.97 1018.33 1018.71 1019.07 1019.41 1019.68 1019.88 1020.01 1020.08 1020.12 1020.17 1020.24
1009.65 1010.81 1012.12 1013.38 1014.38 1014.94 1014.93 1014.34 1013.21 1011.71 1010.05 1008.46 1007.15 1006.26 1005.87 1005.96 1006.49 1007.30 1008.25 1009.22 1010.10 1010.85 1011.45 1011.94 1012.37 1012.80 1013.26 1013.76 1014.31 1014.87 1015.42 1015.92 1016.36 1016.75 1017.08 1017.40 1017.72 1018.06 1018.42 1018.79 1019.16 1019.48 1019.74 1019.93 1020.04 1020.10 1020.12 1020.15 1020.19
1009.21 1010.43 1011.81 1013.17 1014.28 1014.97 1015.13 1014.72 1013.80 1012.50 1011.04 1009.63 1008.47 1007.68 1007.36 1007.49 1008.01 1008.81 1009.73 1010.65 1011.49 1012.19 1012.74 1013.16 1013.51 1013.83 1014.17 1014.54 1014.95 1015.38 1015.81 1016.21 1016.58 1016.91 1017.23 1017.53 1017.85 1018.19 1018.56 1018.93 1019.29 1019.60 1019.85 1020.03 1020.13 1020.17 1020.17 1020.16 1020.16
1008.92 1010.11 1011.48 1012.83 1013.98 1014.75 1015.05 1014.84 1014.16 1013.13 1011.94 1010.77 1009.80 1009.17 1008.93 1009.08 1009.58 1010.32 1011.16 1012.01 1012.78 1013.41 1013.90 1014.27 1014.56 1014.81 1015.06 1015.34 1015.64 1015.96 1016.29 1016.61 1016.91 1017.19 1017.47 1017.75 1018.07 1018.41 1018.77 1019.14 1019.49 1019.80 1020.04 1020.20 1020.28 1020.30 1020.27 1020.22 1020.17
1008.84 1009.91 1011.16 1012.42 1013.52 1014.33 1014.73 1014.69 1014.26 1013.52 1012.63 1011.75 1011.01 1010.54 1010.39 1010.57 1011.03 1011.68 1012.43 1013.17 1013.85 1014.42 1014.86 1015.20 1015.47 1015.69 1015.91 1016.14 1016.38 1016.63 1016.88 1017.12 1017.36 1017.59 1017.83 1018.09 1018.39 1018.72 1019.07 1019.43 1019.77 1020.06 1020.29 1020.44 1020.50 1020.50 1020.44 1020.34 1020.23
1008.99 1009.89 1010.95 1012.05 1013.03 1013.79 1014.25 1014.36 1014.16 1013.70 1013.12 1012.52 1012.04 1011.74 1011.69 1011.88 1012.29 1012.84 1013.47 1014.11 1014.70 1015.20 1015.62 1015.96 1016.24 1016.48 1016.70 1016.92 1017.14 1017.35 1017.55 1017.74 1017.92 1018.11 1018.31 1018.54 1018.80 1019.11 1019.44 1019.78 1020.10 1020.38 1020.59 1020.72 1020.76 1020.73 1020.63 1020.49 1020.31
Thickness
5800 5802 5803 5793 5768 5745 5746 5765 5786 5790 5793 5806 5813 5807 5796 5788 5778 5769 5789 5795 5790 5785 5782 5780 5779 5777 5774 5772 5770 5768 5766 5764 5762 5760 5758 5757 5756 5755 5754 5753 5752 5750 5749 5748 5747 5746 5746 5745 5744
5798 5800 5793 5775 5747 5730 5743 5774 5786 5794 5803 5813 5814 5810 5800 5791 5794 5788 5789 5790 5788 5784 5780 5778 5777 5774 5772 5770 5767 5765 5763 5760 5758 5757 5755 5753 5752 5751 5750 5749 5748 5746 5745 5744 5743 5742 5742 5741 5741
5795 5795 5775 5757 5744 5737 5754 5782 5790 5801 5810 5813 5810 5811 5802 5792 5793 5790 5791 5789 5785 5781 5778 5776 5774 5772 5770 5767 5765 5762 5760 5758 5756 5754 5752 5751 5749 5748 5747 5745 5744 5743 5742 5741 5739 5739 5738 5738 5737
5786 5776 5764 5748 5745 5759 5773 5787 5797 5797 5804 5813 5812 5801 5804 5809 5803 5797 5793 5788 5783 5779 5776 5774 5772 5770 5767 5765 5762 5760 5758 5756 5754 5752 5750 5749 5747 5746 5744 5743 5741 5740 5739 5737 5736 5735 5735 5734 5734
5778 5760 5746 5738 5748 5770 5787 5795 5802 5797 5801 5810 5811 5793 5792 5807 5807 5799 5792 5787 5782 5777 5774 5772 5770 5767 5765 5762 5760 5758 5756 5754 5752 5750 5749 5747 5745 5744 5742 5741 5739 5738 5736 5735 5734 5733 5732 5732 5731
5759 5748 5731 5729 5751 5777 5793 5804 5803 5799 5801 5808 5807 5792 5787 5803 5801 5795 5792 5786 5782 5777 5773 5770 5767 5765 5762 5760 5758 5756 5754 5752 5751 5749 5747 5745 5743 5742 5740 5739 5737 5736 5734 5732 5731 5730 5729 5729 5728
5751 5741 5734 5744 5757 5773 5796 5807 5800 5797 5801 5808 5811 5790 5786 5795 5800 5797 5793 5787 5781 5776 5772 5769 5766 5763 5761 5759 5757 5755 5753 5751 5749 5747 5745 5743 5741 5740 5738 5737 5735 5733 5732 5730 5729 5727 5726 5726 5724
5763 5747 5746 5751 5760 5771 5797 5804 5805 5804 5806 5819 5817 5794 5784 5796 5802 5798 5792 5786 5780 5775 5772 5768 5765 5763 5760 5758 5756 5754 5752 5750 5748 5746 5744 5742 5740 5738 5736 5734 5733 5731 5729 5728 5726 5725 5724 5722 5721
5770 5741 5736 5753 5766 5776 5794 5796 5804 5816 5813 5815 5818 5813 5811 5809 5804 5794 5785 5780 5776 5773 5771 5769 5766 5763 5760 5758 5755 5754 5752 5749 5747 5745 5743 5740 5739 5737 5735 5732 5730 5729 5727 5726 5724 5722 5721 5719 5718
5758 5736 5750 5773 5783 5783 5791 5796 5802 5803 5801 5804 5808 5812 5813 5808 5801 5792 5784 5778 5776 5773 5772 5770 5767 5764 5761 5758 5755 5753 5751 5749 5747 5744 5742 5739 5737 5735 5733 5731 5729 5727 5725 5724 5722 5720 5719 5717 5716
5761 5755 5769 5782 5791 5791 5789 5796 5806 5798 5789 5800 5802 5803 5804 5803 5800 5795 5790 5787 5783 5780 5777 5774 5770 5767 5763 5760 5756 5753 5751 5748 5746 5744 5742 5739 5736 5734 5732 5730 5728 5726 5724 5722 5720 5718 5716 5715 5714
5765 5771 5779 5786 5795 5792 5791 5796 5797 5799 5802 5816 5819 5814 5807 5803 5802 5800 5796 5792 5789 5784 5782 5779 5774 5770 5766 5762 5757 5754 5751 5748 5746 5744 5741 5738 5735 5733 5731 5729 5727 5725 5723 5721 5718 5716 5715 5712 5711
5762 5769 5783 5790 5792 5793 5797 5797 5800 5801 5815 5819 5818 5814 5810 5807 5807 5807 5804 5798 5793 5789 5787 5784 5779 5773 5767 5763 5758 5755 5751 5749 5747 5744 5741 5738 5736 5733 5730 5727 5724 5722 5720 5718 5716 5714 5712 5710 5708
5767 5772 5780 5785 5788 5795 5794 5798 5799 5803 5814 5811 5810 5810 5812 5811 5809 5806 5803 5800 5797 5794 5791 5788 5782 5777 5770 5765 5760 5757 5753 5749 5746 5743 5741 5738 5735 5732 5728 5724 5720 5719 5717 5714 5712 5710 5708 5706 5703
5770 5763 5769 5781 5786 5793 5794 5786 5798 5807 5810 5804 5805 5808 5809 5811 5810 5809 5809 5807 5803 5797 5793 5788 5784 5777 5771 5766 5761 5758 5754 5749 5745 5742 5739 5736 5732 5729 5724 5719 5715 5713 5712 5709 5705 5703 5701 5699 5696
5756 5750 5745 5768 5783 5792 5783 5767 5798 5806 5803 5798 5801 5803 5805 5806 5809 5813 5813 5809 5804 5798 5792 5787 5784 5776 5770 5765 5759 5756 5753 5748 5743 5739 5735 5731 5727 5722 5717 5712 5708 5706 5703 5701 5697 5694 5690 5687 5685
5734 5730 5738 5755 5780 5785 5778 5770 5797 5804 5799 5795 5798 5800 5802 5802 5804 5809 5812 5809 5805 5800 5793 5785 5782 5773 5767 5761 5755 5751 5748 5743 5738 5733 5728 5723 5719 5714 5709 5704 5699 5697 5693 5690 5688 5683 5680 5676 5674
5717 5726 5733 5742 5767 5772 5764 5768 5792 5803 5797 5794 5796 5798 5799 5799 5805 5810 5809 5807 5804 5797 5790 5784 5779 5772 5765 5758 5752 5745 5738 5734 5729 5724 5719 5715 5710 5705 5700 5694 5690 5686 5682 5677 5675 5671 5668 5665 5663
5728 5724 5723 5741 5762 5758 5755 5762 5783 5799 5796 5792 5794 5795 5797 5802 5811 5809 5805 5802 5796 5790 5785 5781 5776 5771 5764 5755 5747 5737 5728 5723 5718 5715 5711 5705 5700 5695 5689 5683 5678 5674 5670 5665 5662 5659 5655 5652 5650
5722 5715 5719 5737 5758 5757 5752 5756 5775 5790 5794 5798 5797 5798 5800 5801 5802 5802 5800 5795 5792 5787 5782 5777 5774 5767 5759 5751 5742 5733 5722 5713 5708 5705 5701 5696 5691 5686 5679 5673 5667 5662 5658 5653 5650 5646 5641 5638 5635
5716 5713 5718 5725 5745 5750 5747 5741 5756 5778 5793 5800 5804 5805 5804 5803 5802 5801 5797 5793 5788 5782 5777 5773 5766 5758 5750 5742 5732 5722 5712 5703 5696 5692 5688 5684 5680 5675 5669 5662 5656 5650 5646 5641 5637 5633 5629 5623 5620
5707 5729 5731 5730 5723 5715 5731 5707 5736 5758 5771 5783 5791 5795 5798 5801 5801 5799 5796 5790 5784 5778 5772 5766 5757 5749 5741 5734 5725 5716 5705 5695 5688 5683 5677 5673 5669 5664 5658 5651 5645 5639 5634 5629 5625 5620 5616 5612 5606
5720 5737 5733 5732 5722 5712 5717 5706 5717 5746 5755 5769 5781 5788 5792 5794 5795 5793 5791 5786 5778 5771 5763 5755 5746 5737 5730 5722 5714 5704 5694 5687 5680 5674 5669 5663 5658 5652 5647 5640 5634 5628 5622 5617 5612 5608 5604 5599 5594
5736 5732 5724 5711 5698 5688 5707 5704 5703 5732 5750 5763 5776 5782 5786 5788 5785 5781 5778 5773 5765 5758 5749 5741 5732 5723 5716 5709 5703 5695 5687 5680 5672 5666 5660 5654 5648 5641 5636 5629 5623 5616 5611 5606 5601 5596 5592 5587 5582
5727 5700 5677 5678 5667 5677 5704 5702 5705 5739 5754 5761 5766 5771 5776 5777 5773 5767 5761 5755 5748 5741 5734 5726 5718 5708 5701 5695 5690 5685 5679 5672 5665 5658 5652 5645 5637 5630 5625 5618 5611 5605 5600 5595 5590 5585 5580 5575 5570
5715 5703 5673 5663 5662 5674 5699 5695 5711 5739 5752 5760 5761 5760 5760 5758 5755 5751 5745 5739 5731 5724 5716 5710 5703 5696 5689 5683 5677 5672 5667 5660 5654 5649 5643 5636 5628 5620 5613 5607 5600 5594 5589 5584 5579 5573 5568 5563 5557
5712 5703 5705 5682 5677 5671 5678 5700 5717 5732 5736 5741 5741 5741 5739 5737 5735 5731 5726 5720 5713 5706 5698 5691 5686 5680 5676 5671 5665 5659 5654 5648 5642 5636 5630 5623 5615 5608 5601 5594 5588 5582 5577 5572 5566 5560 5555 5550 5544
5728 5717 5688 5673 5660 5655 5673 5683 5686 5702 5711 5720 5722 5722 5720 5719 5717 5713 5708 5702 5695 5689 5683 5676 5670 5664 5659 5656 5652 5646 5640 5634 5627 5621 5614 5607 5601 5594 5587 5581 5575 5569 5564 5558 5552 5545 5540 5534 5528
5716 5710 5697 5678 5672 5658 5655 5663 5692 5693 5703 5707 5708 5708 5706 5703 5700 5696 5691 5686 5681 5674 5670 5662 5654 5648 5643 5640 5636 5631 5625 5619 5612 5606 5599 5592 5585 5579 5573 5567 5561 5555 5548 5541 5534 5528 5522 5517 5511
5718 5710 5696 5675 5672 5668 5658 5655 5687 5687 5693 5697 5697 5697 5694 5689 5684 5679 5674 5669 5664 5659 5656 5649 5642 5633 5628 5625 5621 5615 5610 5604 5596 5589 5583 5577 5570 5564 5558 5552 5545 5537 5529 5522 5516 5510 5504 5499 5494